COSMOS 1275 DEB, 13490

Orbit data source: Space-Track

COSMOS 1275 DEB, 13490 is space debris in LEO originally from a launch on Thu, 04 Jun 1981 UTC launched from the Plesetsk Missile And Space Complex (PKMTR). Debris objects in space refer to the collection of defunct objects orbiting the Earth. Examples of debris include non-operational satellites, rocket bodies, and fragments generated from explosions, collisions, or faulty payload assembly.

Loading next visibility...
Identifier
13490, 1981-053GL
Orbit
LEO
Country
Flag of CISCIS
Related business
Manufacturer
Unknown
Mission
Spacecraft
Bus & Motor
Unknown
Mass
Unknown
Launch date (UTC)
1981-06-04 (44 years ago)
Launch vehicle
Unknown
Launch site
Plesetsk Missile And Space Complex (PKMTR)
Object type
Payload
Rocket body
Debris
Shape & HBR
Unknown shape, 0.1 m
Radar Cross Section
Small (<0.1 m²)

Expand to show TLE details & history
Last TLE update: 23 hours ago

TLE from 23 hours ago
0 COSMOS 1275 DEB
1 13490U 81053GL  25286.05211803  .00000282  00000-0  26408-3 0  9992
2 13490  82.8310 293.3298 0067147  63.7064   1.6469 13.77384107175154
Epoch: 2025-10-13T01:15Z
TLE epoch observation values (Epoch: 2025-10-13T01:15:02.997Z)
Latitude
64.50314°
Longitude
-92.08299°
Altitude
934.95 km
Speed
7.415 km/s
True Right ascension
20h 34m 09s
True Declination
64° 22' 21"
Sunlit
Object was in daylight at epoch
Visualization orbit readout
Latitude
Unknown
Longitude
Unknown
Altitude
Unknown
Speed
Unknown
Apparent Right ascension
Unknown
Apparent Declination
Unknown
Sunlit
N/A
Visualization observer readout
Local Sidereal Time
18:35:49
Azimuth
Unknown
Elevation
Unknown
Doppler factor
Unknown
Orbital elements
Apogee altitude
1,019.672 km
Perigee altitude
920.987 km
Semi-major axis
7,348.466 km
Eccentricity
0.00671
Inclination
82.831°
RAAN
293.3298°
Arg. of periapsis
63.7064°
True anomaly
1.6692°
Mean anomaly
1.6469°
Eccentric anomaly
1.65803°
Mean motion
3.44547 °/min
Orbital period
104.49 mins
BSTAR
0.00026408
Loading maneuver chart data...
Computing Atmospheric mass density...

Documentation

Showing up to 5 results
|